Wind_Speed
59 58 61 63 70 75 83 91 86 86 84 82 83 81 79 74 63 54 48 45 44 50 57 65 70 78 86 93 99 101 100 100 105 108 116 125 128 129 134 132 131 130 131 126
59 59 62 66 70 78 85 91 83 81 80 76 80 73 70 62 54 47 39 37 36 39 47 52 57 66 73 81 91 96 96 96 96 99 103 112 120 127 123 130 135 134 130 127
62 62 62 62 69 79 88 87 80 78 75 72 77 62 56 53 43 39 35 28 27 30 39 45 46 54 63 69 79 89 92 92 92 92 95 97 104 116 121 122 126 130 131 127
62 60 60 63 70 80 86 80 77 75 69 68 71 59 51 48 42 37 29 22 21 23 28 37 41 43 52 62 71 81 87 87 88 89 89 90 95 100 114 116 116 119 121 124
61 59 60 63 70 79 82 74 72 69 62 69 70 66 56 41 36 33 31 23 17 17 19 25 31 36 42 55 62 72 79 81 83 86 85 86 88 91 95 104 107 111 113 116
59 58 58 63 72 78 75 68 66 63 54 63 66 65 68 49 42 35 28 22 16 12 14 20 26 30 33 44 56 62 70 72 77 81 80 81 81 84 87 91 99 109 106 114
57 56 58 61 70 76 68 63 59 57 52 56 64 72 75 69 59 43 34 24 17 9 8 15 20 26 28 36 51 57 62 63 67 71 73 73 72 73 75 81 87 97 102 104
53 54 56 61 67 72 62 58 57 56 49 58 68 70 80 77 72 49 36 26 17 11 5 9 16 24 28 36 46 52 56 56 60 64 64 65 65 64 66 71 74 81 87 92
50 53 56 62 67 67 56 53 51 49 40 49 62 72 77 80 82 70 48 33 19 13 6 4 13 22 28 33 40 46 49 50 54 59 58 55 58 60 60 63 66 68 73 80
48 52 55 60 65 61 52 50 47 48 40 46 56 63 74 81 81 75 70 48 30 15 8 5 11 21 29 34 37 39 44 46 49 53 54 53 55 55 55 56 60 65 68 74
46 50 55 58 61 56 46 46 45 43 42 43 51 59 64 71 75 79 76 58 38 23 9 7 13 18 27 31 34 34 37 40 44 46 46 46 48 49 49 52 54 59 59 66
45 48 53 56 58 54 44 44 46 40 42 42 47 52 56 64 68 74 75 72 44 27 16 9 11 16 22 28 31 33 33 35 38 40 39 40 43 43 45 49 52 51 53 58
43 44 47 56 57 51 42 42 45 42 39 39 41 50 50 53 58 64 71 71 59 34 20 13 13 15 17 20 22 26 29 27 26 27 29 31 35 39 43 44 44 49 52 56
42 44 44 49 45 46 39 37 41 42 37 37 40 43 46 47 50 55 61 68 69 47 30 22 18 13 16 18 18 19 21 23 24 27 31 33 34 36 38 41 45 49 48 49
41 43 42 44 43 48 39 34 37 39 35 35 36 39 41 44 45 46 51 59 66 64 56 35 22 18 18 17 18 19 19 21 24 24 24 26 28 31 37 39 43 43 52 54
40 42 41 44 46 48 38 31 33 36 36 33 32 34 37 40 40 41 43 49 54 60 65 48 34 29 24 21 20 21 21 19 20 25 28 31 32 30 32 30 32 38 62 67
37 40 39 41 49 49 41 31 31 33 33 32 31 31 32 35 36 35 39 40 48 51 50 60 52 49 48 50 45 37 30 28 27 30 36 35 32 28 33 34 31 27 47 67
35 37 36 36 44 49 45 36 30 31 32 33 32 31 31 32 32 32 34 34 37 42 46 43 51 53 54 53 51 46 51 42 31 37 44 43 37 34 29 32 36 36 36 49
33 33 33 34 41 48 49 42 36 30 33 33 34 33 33 32 31 29 28 30 31 31 34 38 39 42 44 44 41 41 40 41 39 29 28 24 24 26 28 24 31 33 35 37
30 29 31 32 37 46 51 45 39 34 33 36 37 37 35 32 31 29 27 26 27 27 27 27 29 31 33 34 33 29 27 28 27 32 31 26 19 20 24 21 20 25 28 30
27 26 28 30 34 40 46 49 41 38 35 36 39 40 37 34 31 30 29 27 22 21 21 23 24 24 22 20 21 20 19 19 17 16 21 22 19 17 16 13 15 21 25 27
24 24 25 29 30 37 44 45 38 36 37 37 38 39 40 38 36 33 28 25 23 22 19 16 15 14 13 12 12 13 12 12 12 12 10 8 5 4 7 11 13 14 18 22
23 21 22 25 28 32 41 42 37 32 32 34 36 37 36 36 36 34 30 27 25 23 19 17 16 14 12 9 5 4 4 5 5 4 3 8 11 13 15 17 19 22 26 29
22 20 20 21 26 26 35 40 36 31 31 32 32 34 33 33 32 27 25 25 25 24 23 21 19 18 16 14 13 11 9 8 6 6 6 8 11 13 15 18 22 26 29 32
23 18 19 18 24 23 30 35 33 29 27 29 30 32 32 32 32 33 30 25 23 21 21 21 18 17 15 13 12 12 11 11 10 9 7 8 9 11 14 17 20 23 27 30
23 19 20 17 21 22 25 30 31 25 26 27 28 28 30 32 32 30 29 31 32 28 26 24 22 20 17 15 14 13 13 11 11 12 12 12 13 14 17 20 22 25 27 29
Wind_Direction
325 324 325 328 330 330 332 332 330 328 329 331 326 320 321 319 316 305 291 283 265 253 246 242 240 237 235 231 229 228 228 227 226 225 225 226 226 230 231 230 233 230 232 230
327 327 328 333 332 332 334 334 332 330 335 340 340 327 322 319 313 304 294 284 272 258 251 247 240 236 233 230 226 225 224 224 223 224 226 226 226 227 228 231 233 234 230 229
328 328 332 335 334 334 335 335 335 336 341 343 348 337 331 325 318 313 305 291 279 264 251 247 241 235 231 227 223 222 222 222 222 222 224 225 227 226 228 227 229 232 232 231
329 331 335 336 337 336 337 335 338 340 343 352 357 360 353 342 334 326 316 306 293 275 252 240 236 231 227 223 220 219 219 220 222 223 224 225 227 226 228 227 228 226 229 228
331 332 337 337 338 336 338 337 339 344 346 360 8 10 5 352 347 340 333 328 310 282 261 241 229 225 223 218 217 217 216 218 220 221 223 225 226 227 227 226 228 226 225 224
331 334 338 338 339 337 337 339 342 346 350 3 12 23 21 14 9 358 349 341 329 299 266 239 222 218 215 212 210 213 212 213 217 219 221 223 225 226 224 226 227 225 224 223
331 335 337 340 339 338 338 343 343 347 359 7 14 24 26 29 20 14 5 357 350 333 272 228 215 210 207 203 203 205 206 211 214 214 217 219 222 224 226 226 225 225 227 226
332 337 338 339 339 338 339 345 346 352 0 11 12 24 25 29 26 22 21 10 5 6 341 209 201 197 198 195 196 200 203 207 210 210 212 216 219 222 224 225 227 226 225 227
333 338 338 340 340 338 340 347 351 2 11 21 17 18 24 28 30 26 23 22 19 23 19 175 182 186 188 191 193 195 199 203 206 208 211 215 217 220 222 223 224 225 226 224
332 338 338 342 340 339 343 347 354 3 13 26 20 19 22 22 23 28 30 26 24 28 50 136 159 176 183 182 187 194 199 199 203 206 212 216 218 219 224 225 225 225 225 223
331 337 338 344 339 340 344 350 355 5 12 23 27 22 20 21 25 22 28 30 31 35 57 119 139 159 176 182 184 188 192 197 201 205 211 215 216 219 222 224 224 223 223 220
330 335 339 344 341 341 347 353 357 2 12 22 28 25 22 21 21 23 25 33 31 38 54 116 146 151 161 176 185 189 193 198 204 210 215 219 219 221 219 219 220 221 218 216
328 334 341 343 343 344 350 356 355 359 12 18 30 32 26 22 18 20 21 32 34 40 49 82 125 152 159 161 171 184 192 197 203 207 211 214 213 214 212 212 211 214 210 207
326 333 342 347 351 350 350 1 358 357 4 15 23 32 32 28 22 22 19 25 44 43 52 67 91 117 145 158 164 168 179 184 188 193 199 203 204 204 203 204 205 199 193 196
322 329 341 347 356 354 349 3 3 0 1 11 19 29 34 32 26 27 25 22 31 47 52 60 79 104 122 133 147 152 160 175 177 178 184 185 183 181 179 187 191 190 179 180
320 325 338 348 359 355 354 5 11 6 3 7 14 24 32 34 33 28 32 29 30 33 42 52 73 81 87 92 105 115 126 134 137 143 147 148 148 158 170 174 182 186 185 187
317 322 336 350 2 359 359 6 16 15 13 11 11 17 25 35 36 37 40 37 39 40 43 60 74 83 86 87 86 95 107 117 126 141 137 135 137 154 160 168 167 173 194 199
314 321 334 349 359 2 3 7 13 20 18 20 20 17 17 25 29 35 47 49 43 45 46 59 69 75 79 86 89 92 84 84 106 126 131 142 152 168 165 172 178 180 201 205
309 319 331 346 353 6 6 11 10 21 27 26 24 22 22 22 21 23 34 54 59 53 50 51 54 70 80 78 80 80 84 88 94 108 139 150 157 163 169 183 191 203 216 222
303 317 326 340 352 0 7 8 13 17 24 29 31 28 23 25 27 27 33 40 48 64 68 65 59 57 65 75 86 89 87 90 99 105 111 117 131 173 187 199 223 228 238 247
298 313 324 337 350 355 5 3 8 16 22 28 29 28 28 26 27 29 37 41 44 50 52 52 57 61 64 65 71 67 68 81 88 86 108 120 127 140 156 178 209 227 233 237
288 307 323 335 345 353 5 2 6 13 21 24 28 27 27 29 27 27 31 36 44 51 54 59 64 63 62 56 49 48 44 43 47 52 74 104 127 162 201 223 239 247 246 249
279 298 321 330 336 352 359 4 9 16 20 28 30 27 20 21 22 23 30 32 34 36 39 46 52 57 59 59 60 73 62 42 34 18 327 296 292 285 277 275 277 274 272 271
266 287 309 322 324 352 355 2 5 13 27 29 31 39 41 38 32 28 26 30 32 35 38 42 43 41 38 34 31 30 25 15 359 341 311 289 284 282 281 277 273 273 274 274
257 273 294 308 312 339 357 360 357 12 21 27 27 26 30 35 36 38 36 32 31 36 39 38 36 37 36 33 33 31 28 26 22 11 342 315 299 295 290 288 285 281 278 277
247 259 280 297 300 312 350 357 355 4 15 18 19 26 24 24 29 30 31 29 28 27 27 26 26 23 20 20 14 11 10 8 4 356 345 333 316 304 301 301 304 305 302 298
Height
10541 10533 10523 10513 10497 10483 10466 10446 10423 10396 10374 10352 10322 10295 10276 10259 10246 10237 10229 10225 10224 10223 10225 10228 10239 10249 10262 10282 10301 10321 10341 10359 10376 10392 10408 10424 10440 10458 10477 10491 10505 10527 10545 10564
10532 10523 10512 10500 10486 10467 10450 10431 10409 10384 10362 10341 10312 10281 10263 10246 10232 10221 10214 10209 10206 10205 10207 10212 10221 10229 10242 10260 10281 10300 10320 10338 10356 10374 10389 10404 10419 10434 10448 10466 10484 10500 10524 10541
10522 10513 10503 10490 10476 10456 10438 10415 10396 10375 10354 10333 10310 10277 10253 10235 10221 10210 10201 10197 10194 10193 10194 10198 10206 10215 10228 10245 10264 10282 10300 10319 10338 10355 10370 10386 10401 10413 10427 10447 10463 10479 10499 10520
10515 10504 10493 10480 10465 10448 10428 10405 10386 10366 10348 10330 10303 10273 10249 10230 10213 10201 10195 10189 10185 10184 10186 10189 10197 10207 10217 10232 10250 10268 10286 10305 10323 10338 10353 10370 10384 10395 10410 10429 10442 10458 10475 10498
10506 10496 10485 10472 10456 10439 10420 10400 10382 10363 10346 10328 10303 10271 10248 10227 10213 10201 10191 10184 10180 10177 10179 10183 10189 10199 10209 10222 10240 10257 10273 10292 10309 10325 10340 10354 10367 10379 10395 10412 10425 10441 10457 10479
10500 10490 10478 10465 10449 10432 10414 10397 10378 10361 10346 10329 10302 10273 10246 10227 10214 10203 10191 10183 10178 10175 10176 10179 10185 10193 10204 10217 10232 10248 10265 10280 10295 10311 10326 10340 10353 10366 10380 10392 10407 10424 10442 10459
10494 10484 10471 10460 10445 10426 10409 10393 10379 10361 10341 10324 10303 10275 10250 10230 10214 10199 10191 10183 10178 10175 10175 10179 10184 10191 10201 10213 10227 10243 10258 10273 10286 10300 10314 10328 10342 10355 10367 10378 10392 10409 10426 10443
10487 10477 10467 10455 10440 10423 10405 10391 10372 10353 10339 10322 10305 10280 10257 10237 10219 10205 10192 10185 10180 10177 10177 10180 10184 10191 10199 10210 10225 10239 10253 10266 10278 10290 10305 10320 10333 10345 10358 10369 10382 10397 10411 10426
10483 10472 10461 10449 10434 10418 10403 10389 10374 10359 10343 10326 10309 10292 10267 10246 10227 10214 10202 10191 10184 10180 10180 10183 10187 10193 10202 10214 10226 10238 10249 10261 10272 10285 10300 10313 10325 10336 10346 10358 10372 10384 10397 10409
10477 10467 10456 10444 10429 10413 10399 10387 10374 10358 10343 10326 10311 10297 10276 10257 10239 10223 10210 10200 10193 10188 10186 10188 10192 10198 10206 10215 10227 10237 10247 10257 10270 10283 10294 10305 10315 10328 10338 10350 10362 10373 10383 10397
10472 10463 10452 10441 10426 10412 10398 10386 10373 10359 10347 10331 10316 10303 10285 10270 10253 10237 10221 10209 10199 10196 10194 10194 10196 10201 10209 10218 10227 10237 10247 10257 10268 10279 10289 10299 10311 10323 10332 10341 10351 10360 10372 10385
10469 10459 10448 10437 10423 10409 10395 10383 10371 10360 10350 10335 10322 10309 10294 10281 10266 10250 10234 10220 10208 10201 10199 10199 10202 10207 10214 10222 10230 10239 10248 10257 10266 10276 10288 10297 10306 10315 10323 10331 10340 10351 10361 10374
10465 10458 10449 10433 10420 10405 10393 10381 10371 10359 10350 10341 10329 10314 10303 10292 10279 10264 10247 10231 10217 10208 10205 10207 10209 10213 10219 10226 10234 10241 10248 10258 10268 10277 10284 10291 10299 10305 10313 10324 10333 10342 10353 10366
10459 10454 10447 10436 10422 10408 10395 10382 10371 10361 10352 10344 10333 10321 10311 10301 10290 10277 10261 10244 10231 10220 10214 10214 10217 10220 10224 10231 10238 10244 10250 10257 10263 10268 10274 10282 10290 10299 10308 10317 10326 10336 10350 10359
10455 10450 10444 10434 10420 10408 10396 10382 10372 10362 10353 10346 10338 10328 10320 10311 10301 10290 10278 10260 10244 10234 10228 10225 10226 10228 10231 10236 10241 10247 10252 10254 10262 10268 10273 10282 10288 10296 10305 10315 10325 10338 10344 10356
10452 10447 10440 10431 10418 10405 10394 10382 10372 10362 10354 10347 10341 10332 10326 10319 10311 10303 10292 10279 10265 10255 10244 10240 10238 10241 10243 10247 10251 10253 10256 10260 10264 10269 10275 10282 10290 10300 10308 10317 10325 10336 10346 10351
10448 10444 10438 10429 10417 10405 10393 10382 10373 10364 10356 10349 10342 10335 10329 10324 10319 10313 10303 10293 10283 10275 10269 10264 10257 10255 10257 10260 10261 10263 10266 10269 10272 10275 10281 10288 10297 10304 10310 10318 10327 10335 10342 10349
10444 10441 10436 10430 10419 10406 10394 10383 10374 10365 10358 10351 10344 10337 10331 10326 10323 10320 10313 10305 10297 10291 10286 10283 10278 10275 10273 10273 10277 10278 10282 10281 10284 10286 10290 10294 10302 10306 10314 10322 10327 10333 10336 10342
10440 10437 10433 10426 10418 10407 10395 10384 10375 10367 10360 10353 10346 10339 10332 10327 10324 10321 10317 10313 10308 10303 10299 10295 10292 10290 10288 10287 10288 10289 10292 10296 10298 10300 10303 10307 10312 10316 10321 10326 10331 10335 10339 10344
10436 10434 10431 10425 10418 10408 10397 10385 10376 10369 10361 10355 10348 10342 10335 10330 10326 10323 10319 10315 10313 10312 10310 10307 10304 10302 10301 10300 10299 10302 10303 10303 10306 10307 10311 10314 10317 10321 10324 10329 10333 10335 10337 10341
10432 10430 10428 10423 10417 10409 10399 10387 10377 10370 10363 10356 10350 10345 10340 10335 10331 10327 10322 10320 10318 10316 10313 10311 10310 10310 10309 10311 10312 10311 10312 10311 10312 10314 10313 10315 10318 10321 10324 10327 10330 10332 10333 10334
10428 10427 10424 10420 10415 10408 10401 10390 10379 10372 10364 10358 10353 10349 10344 10340 10337 10332 10329 10327 10325 10323 10321 10319 10318 10317 10316 10316 10315 10314 10314 10314 10315 10315 10318 10321 10323 10325 10328 10329 10330 10330 10330 10331
10424 10423 10421 10418 10414 10408 10402 10393 10384 10376 10369 10363 10358 10353 10349 10345 10341 10338 10335 10332 10330 10328 10326 10325 10324 10322 10321 10321 10321 10320 10319 10318 10318 10318 10319 10320 10322 10323 10324 10324 10323 10323 10322 10321
10418 10418 10417 10415 10412 10408 10402 10396 10388 10381 10374 10368 10364 10360 10356 10353 10350 10346 10343 10339 10336 10333 10330 10328 10326 10325 10323 10323 10321 10320 10319 10318 10318 10318 10318 10318 10317 10316 10316 10315 10315 10314 10313 10310
10412 10413 10412 10412 10409 10406 10402 10397 10391 10385 10378 10373 10368 10363 10359 10355 10352 10350 10347 10345 10342 10339 10336 10333 10331 10330 10328 10327 10326 10324 10322 10320 10318 10318 10318 10317 10316 10315 10313 10312 10310 10308 10305 10302
10406 10407 10407 10408 10407 10404 10400 10396 10392 10387 10381 10376 10371 10367 10363 10359 10355 10351 10348 10345 10342 10340 10338 10336 10334 10332 10330 10329 10327 10325 10323 10321 10319 10318 10316 10314 10312 10310 10308 10306 10303 10299 10295 10292